軌道要素
Epoch 1999 May 22.0 TT = JDT 2451320.5
T 1999 May 11.58181 TT MPC
q 0.0492535 (2000.0) P Q
n 0.17966481 Peri. 21.90952 -0.19665180 -0.87409821
a 3.1104797 Node 81.73717 +0.81972936 -0.39511528
e 0.9841653 Incl. 26.66811 +0.53793293 +0.28255308
P 5.49
|